Regional Weather Roundup
Issued by NWS Wakefield, VA

Home | Current Version | Previous Version | Text Only | Print | Product List | Glossary Off
Versions: 1 2 3 4 5 6 7 8 9 10 11 12 13 14 15 16 17 18 19 20 21 22 23 24 25 26 27 28 29 30 31 32 33 34 35 36 37 38 39 40 41 42 43 44 45 46 47 48 49 50

263
ASUS41 KAKQ 262014
RWRAKQ

REGIONAL WEATHER ROUNDUP
NATIONAL WEATHER SERVICE WAKEFIELD VA
300 PM EST SUN FEB 26 2017

Note: "fair" indicates few or no clouds below 12,000 feet with no
significant weather and/or obstructions to visibility. * = Denotes
station may not report precipitation (e.g., rain,snow,etc.),
thunder or fog.

VAZ042-051-052>054-056-262100-
NORTHERN VIRGINIA

CITY           SKY/WX    TMP DP  RH WIND       PRES   REMARKS
WASH NATIONAL  MOSUNNY   48  17  29 W17       30.15R
DULLES         MOSUNNY   47  17  30 NW9       30.14R
FORT BELVOIR   SUNNY     48  16  27 W7        30.14R
QUANTICO       SUNNY     49  22  34 VRB7      30.16R
FREDERICKSBRG* SUNNY     51  23  33 W10       30.14R
STAFFORD*      SUNNY     48  18  30 CALM      30.18R
WARRENTON      SUNNY     51   9  19 NW3       30.13R
CULPEPER*      SUNNY     51  19  28 W10       30.14S
MANASSAS*      SUNNY     48  17  29 W7        30.14R
LEESBURG*      SUNNY     48  25  40 MISG      30.14S
WINCHESTER     SUNNY     43  18  36 NW6       30.12R
FRONT ROYAL*   CLEAR     48  14  25 W7        30.10
LURAY*         CLEAR     48  19  32 S5        30.09
$$

VAZ048-049-060>072-079>083-262100-
CENTRAL AND SOUTH CENTRAL VIRGINIA

CITY           SKY/WX    TMP DP  RH WIND       PRES   REMARKS
RICHMOND       SUNNY     51  17  26 SW6       30.14R
CHESTERFIELD*  FAIR      52  14  22 W13       30.16R
PETERSBURG*    SUNNY     51  14  22 W10G20    30.15R
HANOVER        SUNNY     50  16  25 W13       30.16R
TAPPAHANNOCK*  SUNNY     52   6  15 W7        30.14S
QUINTON*       NOT AVBL
CHARLOTTSVILLE SUNNY     53  13  20 VRB5      30.11S
GORDONSVILLE*  CLEAR     50  15  24 NW3       30.12S
ORANGE*        SUNNY     48  18  29 SW10      30.14S
LOUISA*        SUNNY     54  19  26 W7G16     30.13R
BUMPASS*       NOT AVBL
FARMVILLE*     SUNNY     53  17  24 SW9       30.13S
CREWE*         FAIR      51  19  28 W6        30.14R
FORT PICKETT*  NOT AVBL
CHASE CITY*    NOT AVBL
CLARKSVILLE*   FAIR      50  21  32 W6        30.16S
SOUTH HILL*    SUNNY     50  21  31 W3        30.21S
LAWRENCEVILLE* NOT AVBL
EMPORIA*       SUNNY     52  19  28 SW9G16    30.16S
$$

VAZ088>098-262100-
SOUTHEAST VIRGINIA

CITY           SKY/WX    TMP DP  RH WIND       PRES   REMARKS
NORFOLK        SUNNY     50  29  44 NE7       30.13S
VIRGINIA BEACH MOSUNNY   51  27  39 N13       30.12S
NORFOLK NAVAL  SUNNY     52  24  33 W7        30.15S
WEST POINT*    SUNNY     51  20  28 NW5       30.15S
SALUDA*        FAIR      48  24  38 N5        30.13S
NEWPORT NEWS   SUNNY     51  24  34 VRB7G17   30.13F
LANGLEY AFB    SUNNY     52  27  38 W12       30.13S
FORT EUSTIS    SUNNY     55  24  30 N6        30.11S
WILLIAMSBURG*  SUNNY     54  25  32 W7G17     30.14S
HR EXEC AP*    FAIR      54  23  30 NW8G16    30.13R
FRANKLIN*      SUNNY     54  20  26 W9        30.15R
US460-WAKEFLD  SUNNY     52  20  28 SW6       30.14S
$$

VAZ020-022-025-037-045-262100-
WEST CENTRAL AND SOUTHWEST VIRGINIA

CITY           SKY/WX    TMP DP  RH WIND       PRES   REMARKS
STAUNTON*      SUNNY     49  11  21 W10G22    30.10S
WAYNESBORO*    NOT AVBL
HOT SPRINGS VA SUNNY     36   1  23 W16G23    30.05R
LYNCHBURG      SUNNY     51  13  21 MISG      30.14S
DANVILLE       SUNNY     52  17  25 W9        30.16S
SOUTH BOSTON*  FAIR      53  13  20 W6        30.15F
MARTINSVILLE   SUNNY     53  11  18 W5        30.17S
ROANOKE        SUNNY     51  11  20 NW14G21   30.14F
BLACKSBURG     SUNNY     45  15  29 W7        30.15F
DUBLIN*        SUNNY     47  13  26 W9        30.15S
MARION*        SUNNY     45  14  28 W8G17     30.16S
HILLSVILLE*    SUNNY     41  14  33 CALM      30.12S
RICHLANDS*     FAIR      41  13  31 CALM      30.15F
WISE*          SUNNY     43  10  26 CALM      30.16S
ABINGDON*      SUNNY     46  17  31 W10       30.18S
$$

MDZ021>025-VAZ099-100-262100-
SOUTHERN MARYLAND AND THE DELMARVA PENINSULA

CITY           SKY/WX    TMP DP  RH WIND       PRES   REMARKS
PATUXENT RIVER MOSUNNY   47  21  35 NW10G18   30.14S
BAY BRIDGE APT SUNNY     45  19  36 W7        30.15R
LEONARDTOWN    SUNNY     46  19  34 W8G17     30.16R
DOVER          SUNNY     44  24  45 W17G24    30.11R
GEORGETOWN     SUNNY     45  19  35 W10G17    30.13R
EASTON         SUNNY     46  18  31 NW15G21   30.18R
CAMBRIDGE      SUNNY     45  19  36 NW12      30.15R
SALISBURY      SUNNY     45  21  38 NW10G21   30.14R
OCEAN CITY     SUNNY     45  20  36 NW14G21   30.13R
WALLOPS ISLAND SUNNY     46  21  37 W10G23    30.14S
ACCOMACK*      SUNNY     46  25  44 NW7       30.15S
$$

NCZ012>017-030>032-262100-
NORTH CENTRAL AND EASTERN NORTH CAROLINA

CITY           SKY/WX    TMP DP  RH WIND       PRES   REMARKS
ROANOKE RAPIDS FAIR      54  23  30 NW6       30.15S
RALEIGH        MOSUNNY   54  15  21 W8        30.17S
ELIZABETH CITY SUNNY     54  24  31 W6        30.14S
AHOSKIE*         N/A     53  21  28 CALM      30.15S
EDENTON*       SUNNY     56  24  28 SW7       30.15S
CURRITUCK*     SUNNY     49  32  52 NE8       30.16R
KILL DEVIL HLS NOT AVBL
MANTEO         SUNNY     52  26  37 NW7       30.15S
CAPE HATTERAS  SUNNY     55  33  43 CALM      30.16R
TARBORO*       NOT AVBL
GOLDSBORO      SUNNY     58  13  17 W5        30.14S
WASHINGTON     SUNNY     56  19  23 NW6       30.16R
GREENVILLE     SUNNY     57  19  23 W3        30.17R
NEW BERN       SUNNY     59  20  22 W9        30.17R
WILMINGTON     SUNNY     60  19  20 VRB3      30.18R
$$

VAZ048-262100-
ELSEWHERE

CITY           SKY/WX    TMP DP  RH WIND       PRES   REMARKS
HARRISBURG PA  PTSUNNY   40  20  44 NW13      30.13R
BALTIMORE      MOSUNNY   44  18  35 W12G21    30.14R
ANNAPOLIS      MOSUNNY   46  20  35 NW10      30.14R
ANDREWS AFB    SUNNY     46  17  31 W8        30.13R
PHILADELPHIA   MOSUNNY   42  14  32 W20       30.11R
HENDERSON NC   SUNNY     48  16  27 W7        30.16S
GREENSBORO     MOSUNNY   51  14  22 W7        30.15F
ROCKY MOUNT    SUNNY     55  20  25 MISG      30.16S
$$

VAZ100-262100-
MARINE

STATION/POSITION TIME  TEMP    WIND        PRES    WAVE   SWELL
                       AIR SEA DIR/SP/G            HT/PER HT/PER
                 (UTC) (F)     (DEG/KT/KT) (MB)    (FT/S) (FT/S)
CAPE MAY NJ      1948   41 46  310/ 15/ 18 1019.7R
LEWES DE         1948   42 46  300/ 16/ 18 1020.0R
OCEAN-CITY-INLET 1948   44 47  330/ 11/ 16 1020.5S
WACHAPREAGUE VA  1948   46 56  330/  3/ 10 1020.6S
THOMAS POINT MD  2000   43 44  290/  8/ 10   N/A
GOOSES REEF MD   2000   45 45  280/ 10/ 12 1021.4    1/ 2
COVE POINT MD    1948   43     330/ 10/ 15 1021.4R
SOLOMONS ISLAND  1948   46 45  290/  5/  9   N/A
BISHOPS HEAD MD  1948   43 49  280/  6/ 13 1021.2R
PINEY POINT MD   1942          360/  9/ 10   N/A
POTOMAC MD       2000   44 44  330/ 12/ 14 1020.1    1/ 2
CAMBRIDGE MD     1948   42 46  310/ 11/ 14 1020.2R
LEWISETTA VA     1948   44 46   10/ 11/ 15 1020.4S
RAPPAHANNOCK LGT 1942           10/ 13/ 13 1021.2S
YORK RVR RNG VA  1948   52      50/  2/  5 1019.8F
YORKTOWN VA      1948   49 50  290/  9/ 13 1020.0F
JAMESTOWN VA     2000   49 55  300/  8/ 12   N/A     0
DOMINION TERM VA 1948   49     300/  4/  6 1020.4F
KIPTOPEKE VA     1942      49  350/  9/ 11   N/A
CHES BAY BRIDGE  1948   44 48   20/  6/  8 1020.3F
CAPE HENRY VA    1948   44     360/  7/  9   N/A
WILLOUBY STN VA  1948   51     210/  2/  3 1021.2F
S CRANEY ISL VA  1948   49      20/  8/  9 1020.1F
CAPE HENRY BUOY  1942      48                N/A     3/ 9
OFFSHORE WE BUOY 1951      49                N/A     4/10   2/11
64NM E OF VA BCH 1950   43 51  340/ 12/ 16 1020.9F   5/ 9   5/ 9
DUCK PIER NC     1948   45 49   70/  7/  8 1020.8R
44100 DUCK FRF   1905      50                N/A     4/ 9   2/11
44056 DUCK FRF   1930      50                N/A     4/11   2/11
OREGON INLET NC  1942   46 56   40/  8/ 10 1021.0R
HATTERAS NC      1948   52 61  280/  4/  5 1020.9R
DIAMOND SHLS NC  1950   52 72  330/  6/ 10 1021.4R   5/ 9   5/ 9
CAPE LOOKOUT NC  2000   54     240/  6/  8 1021.1R
$$




USA.gov is the U.S. government's official web portal to all federal, state and local government web resources and services.